When you browse on this site, cookies collect data to enhance your experience and personalize the content and advertising you see.
Visit our Privacy Policy to learn more. By continuing to use the site, you agree to this use of cookies and data.
  • In Deutschland
  • Länderverzeichnis
  • Für 7 Tage
  • Wassertemperatur
  • Wetterkarte
  • Widgets
  • user-avatar
    Anmelden

    Stündliche Wetter Lankaran

    Heute, 25 August, Sonntag

    Zeit Temperatur Niederschläge Wind Luftdruck Luftfeuchtigkeit
    00:00 +18°C° 0 mm 1 m/S 634 mmHg 45%
    01:00 +18°C° 0 mm 1 m/S 634 mmHg 47%
    02:00 +16°C° 0 mm 1 m/S 633 mmHg 50%
    03:00 +16°C° 0 mm 1 m/S 633 mmHg 52%
    04:00 +16°C° 0 mm 1 m/S 634 mmHg 51%
    05:00 +18°C° 0 mm 1 m/S 634 mmHg 50%
    06:00 +18°C° 0 mm 1 m/S 634 mmHg 49%
    07:00 +21°C° 0 mm 1 m/S 635 mmHg 43%
    08:00 +23°C° 0 mm 2 m/S 636 mmHg 37%
    09:00 +26°C° 0 mm 2 m/S 637 mmHg 31%
    10:00 +27°C° 0 mm 3 m/S 637 mmHg 31%
    11:00 +27°C° 0 mm 3 m/S 637 mmHg 30%
    12:00 +28°C° 0 mm 4 m/S 637 mmHg 29%
    13:00 +28°C° 0 mm 4 m/S 636 mmHg 30%
    14:00 +27°C° 0 mm 4 m/S 636 mmHg 31%
    15:00 +27°C° 0 mm 4 m/S 636 mmHg 33%
    16:00 +25°C° 0 mm 3 m/S 635 mmHg 39%
    17:00 +22°C° 0 mm 3 m/S 635 mmHg 45%
    18:00 +21°C° 0 mm 2 m/S 634 mmHg 51%
    19:00 +19°C° 0 mm 2 m/S 634 mmHg 52%
    20:00 +19°C° 0 mm 1 m/S 634 mmHg 52%
    21:00 +18°C° 0 mm 1 m/S 634 mmHg 53%
    22:00 +18°C° 0 mm 1 m/S 634 mmHg 52%
    23:00 +15°C° 0 mm 0 m/S 634 mmHg 51%

    Morgen, 26 August, Montag

    Zeit Temperatur Niederschläge Wind Luftdruck Luftfeuchtigkeit
    00:00 +15°C° 0 mm 0 m/S 634 mmHg 50%
    01:00 +15°C° 0 mm 0 m/S 633 mmHg 50%
    02:00 +14°C° 0 mm 0 m/S 633 mmHg 51%
    03:00 +14°C° 0 mm 0 m/S 633 mmHg 52%
    04:00 +14°C° 0 mm 0 m/S 634 mmHg 48%
    05:00 +16°C° 0 mm 1 m/S 634 mmHg 45%
    06:00 +16°C° 0 mm 1 m/S 635 mmHg 42%
    07:00 +18°C° 0 mm 2 m/S 635 mmHg 37%
    08:00 +20°C° 0 mm 3 m/S 636 mmHg 31%
    09:00 +22°C° 0 mm 3 m/S 637 mmHg 26%
    10:00 +23°C° 0 mm 4 m/S 637 mmHg 27%
    11:00 +23°C° 0 mm 4 m/S 637 mmHg 29%
    12:00 +25°C° 0 mm 5 m/S 637 mmHg 30%
    13:00 +23°C° 0 mm 5 m/S 637 mmHg 33%
    14:00 +23°C° 0 mm 5 m/S 636 mmHg 37%
    15:00 +22°C° 0 mm 5 m/S 636 mmHg 40%
    16:00 +20°C° 0 mm 4 m/S 636 mmHg 50%
    17:00 +19°C° 0 mm 4 m/S 635 mmHg 60%
    18:00 +17°C° 0 mm 3 m/S 634 mmHg 70%
    19:00 +16°C° 0 mm 3 m/S 635 mmHg 76%
    20:00 +15°C° 0 mm 2 m/S 635 mmHg 82%
    21:00 +14°C° 0 mm 2 m/S 635 mmHg 88%
    22:00 +13°C° 0 mm 2 m/S 635 mmHg 88%
    23:00 +13°C° 0 mm 1 m/S 635 mmHg 87%

    übermorgen, 27 August, Dienstag

    Zeit Temperatur Niederschläge Wind Luftdruck Luftfeuchtigkeit
    00:00 +13°C° 0 mm 1 m/S 635 mmHg 87%
    01:00 +13°C° 0.3 mm 1 m/S 635 mmHg 87%
    02:00 +12°C° 0.3 mm 1 m/S 635 mmHg 88%
    03:00 +12°C° 0.3 mm 1 m/S 635 mmHg 88%
    04:00 +13°C° 0.2 mm 1 m/S 635 mmHg 87%
    05:00 +13°C° 0.2 mm 1 m/S 635 mmHg 85%
    06:00 +13°C° 0.2 mm 1 m/S 636 mmHg 83%
    07:00 +15°C° 0.1 mm 2 m/S 636 mmHg 75%
    08:00 +17°C° 0.1 mm 2 m/S 636 mmHg 67%
    09:00 +18°C° 0.1 mm 3 m/S 637 mmHg 59%
    10:00 +19°C° 0 mm 3 m/S 637 mmHg 57%
    11:00 +20°C° 0 mm 3 m/S 636 mmHg 55%
    12:00 +21°C° 0 mm 4 m/S 636 mmHg 53%
    13:00 +21°C° 0 mm 4 m/S 636 mmHg 54%
    14:00 +22°C° 0 mm 3 m/S 635 mmHg 55%
    15:00 +22°C° 0 mm 3 m/S 635 mmHg 57%
    16:00 +20°C° 0 mm 3 m/S 634 mmHg 63%
    17:00 +19°C° 0 mm 2 m/S 634 mmHg 69%
    18:00 +17°C° 0 mm 2 m/S 633 mmHg 75%
    19:00 +17°C° 0.1 mm 2 m/S 633 mmHg 75%
    20:00 +16°C° 0.1 mm 2 m/S 633 mmHg 75%
    21:00 +16°C° 0.1 mm 2 m/S 634 mmHg 74%
    22:00 +15°C° 0 mm 2 m/S 633 mmHg 76%
    23:00 +15°C° 0 mm 1 m/S 633 mmHg 77%

    28 August, Mittwoch

    Zeit Temperatur Niederschläge Wind Luftdruck Luftfeuchtigkeit
    00:00 +14°C° 0 mm 1 m/S 632 mmHg 79%
    01:00 +14°C° 0 mm 1 m/S 632 mmHg 79%
    02:00 +14°C° 0 mm 1 m/S 632 mmHg 78%
    03:00 +13°C° 0 mm 0 m/S 632 mmHg 78%
    04:00 +13°C° 0 mm 0 m/S 632 mmHg 76%
    05:00 +13°C° 0 mm 0 m/S 632 mmHg 75%
    06:00 +14°C° 0 mm 0 m/S 633 mmHg 74%
    07:00 +18°C° 0 mm 1 m/S 633 mmHg 65%
    08:00 +19°C° 0 mm 2 m/S 634 mmHg 57%
    09:00 +21°C° 0 mm 2 m/S 635 mmHg 48%
    10:00 +22°C° 0 mm 3 m/S 635 mmHg 47%
    11:00 +22°C° 0 mm 3 m/S 635 mmHg 45%
    12:00 +23°C° 0 mm 4 m/S 635 mmHg 44%
    13:00 +23°C° 0 mm 4 m/S 635 mmHg 45%
    14:00 +23°C° 0 mm 4 m/S 635 mmHg 47%
    15:00 +22°C° 0 mm 4 m/S 634 mmHg 49%
    16:00 +21°C° 0 mm 3 m/S 634 mmHg 53%
    17:00 +19°C° 0 mm 3 m/S 634 mmHg 57%
    18:00 +18°C° 0 mm 2 m/S 633 mmHg 62%
    19:00 +17°C° 0 mm 2 m/S 633 mmHg 62%
    20:00 +15°C° 0 mm 1 m/S 633 mmHg 63%
    21:00 +14°C° 0 mm 1 m/S 633 mmHg 63%
    22:00 +14°C° 0 mm 1 m/S 633 mmHg 62%
    23:00 +14°C° 0 mm 1 m/S 633 mmHg 60%

    29 August, Donnerstag

    Zeit Temperatur Niederschläge Wind Luftdruck Luftfeuchtigkeit
    00:00 +13°C° 0 mm 1 m/S 633 mmHg 58%
    01:00 +13°C° 0 mm 1 m/S 633 mmHg 58%
    02:00 +13°C° 0 mm 1 m/S 633 mmHg 58%
    03:00 +12°C° 0 mm 0 m/S 633 mmHg 58%
    04:00 +12°C° 0 mm 0 m/S 634 mmHg 57%
    05:00 +13°C° 0 mm 0 m/S 634 mmHg 55%
    06:00 +13°C° 0 mm 0 m/S 634 mmHg 54%
    07:00 +18°C° 0 mm 1 m/S 635 mmHg 48%
    08:00 +19°C° 0 mm 2 m/S 635 mmHg 42%
    09:00 +21°C° 0 mm 2 m/S 636 mmHg 36%
    10:00 +22°C° 0 mm 3 m/S 636 mmHg 36%
    11:00 +24°C° 0 mm 3 m/S 636 mmHg 36%
    12:00 +25°C° 0 mm 4 m/S 636 mmHg 36%
    13:00 +25°C° 0 mm 4 m/S 636 mmHg 38%
    14:00 +25°C° 0 mm 4 m/S 635 mmHg 41%
    15:00 +25°C° 0 mm 4 m/S 635 mmHg 43%
    16:00 +22°C° 0 mm 3 m/S 634 mmHg 53%
    17:00 +20°C° 0 mm 3 m/S 633 mmHg 63%
    18:00 +17°C° 0 mm 2 m/S 632 mmHg 73%
    19:00 +17°C° 0 mm 2 m/S 633 mmHg 75%
    20:00 +16°C° 0 mm 1 m/S 633 mmHg 77%
    21:00 +14°C° 0 mm 0 m/S 633 mmHg 79%
    22:00 +15°C° 0 mm 1 m/S 633 mmHg 80%
    23:00 +15°C° 0 mm 1 m/S 633 mmHg 80%

    30 August, Freitag

    Zeit Temperatur Niederschläge Wind Luftdruck Luftfeuchtigkeit
    00:00 +15°C° 0 mm 1 m/S 633 mmHg 81%
    01:00 +14°C° 0 mm 1 m/S 633 mmHg 84%
    02:00 +14°C° 0 mm 1 m/S 633 mmHg 87%
    03:00 +14°C° 0 mm 1 m/S 633 mmHg 90%
    04:00 +14°C° 0 mm 1 m/S 633 mmHg 90%
    05:00 +14°C° 0 mm 1 m/S 633 mmHg 89%
    06:00 +15°C° 0 mm 1 m/S 633 mmHg 88%
    07:00 +16°C° 0 mm 1 m/S 634 mmHg 81%
    08:00 +17°C° 0 mm 2 m/S 634 mmHg 75%
    09:00 +19°C° 0 mm 3 m/S 635 mmHg 68%
    10:00 +19°C° 0 mm 3 m/S 634 mmHg 67%
    11:00 +20°C° 0 mm 4 m/S 634 mmHg 66%
    12:00 +20°C° 0 mm 4 m/S 634 mmHg 66%
    13:00 +20°C° 0.1 mm 4 m/S 634 mmHg 69%
    14:00 +19°C° 0.1 mm 4 m/S 633 mmHg 73%
    15:00 +19°C° 0.1 mm 4 m/S 633 mmHg 76%
    16:00 +18°C° 0.4 mm 3 m/S 633 mmHg 81%
    17:00 +17°C° 0.4 mm 2 m/S 633 mmHg 85%
    18:00 +16°C° 0.4 mm 2 m/S 632 mmHg 89%
    19:00 +15°C° 0.1 mm 2 m/S 633 mmHg 91%
    20:00 +15°C° 0.1 mm 2 m/S 633 mmHg 92%
    21:00 +13°C° 0.1 mm 3 m/S 633 mmHg 94%
    22:00 +13°C° 0.2 mm 3 m/S 633 mmHg 94%
    23:00 +13°C° 0.2 mm 3 m/S 633 mmHg 94%
    Mehr zeigen